Inquirer Daily News

Weather

Get conditions and forecasts for any City, State, ZIP code or Country:  
Northeast Philadelphia, PA
on Monday, November 12, 2012

Monday
Previous Day Next Day
Daily Summary
 ActualAverage (KTTN)Record (KTTN)
Temperature
Mean Temperature °F 47°F  
Max Temperature 69°F 56°F 74°F (1912)
Min Temperature 39°F 38°F 24°F (2001)
Degree Days
Heating Degree Days 11 18  
Month to date heating degree days 198  
Since 1 July heating degree days 595  
Cooling Degree Days 0 0  
Month to date cooling degree days 0  
Year to date cooling degree days 965  
Growing Degree Days4 (Base °F )  
Moisture
Dew Point 48°F   
Average Humidity 85    
Maximum Humidity 100    
Minimum Humidity 54    
Precipitation
Precipitation 0.00 in 0.09 in 1.80 in (1975)
Month to date precipitation 1.27  
Year to date precipitation 40.70  
Wind
Wind Speed 1 mph   
Max Wind Speed 10 mph   
Max Gust Speed 18 mph   
Visibility 5 miles   
Events Fog   

Key: T is trace of precipitation, MM is missing value
Source: NWS Daily Summary
Time(EST)TemperatureDew PointHumidity Pressure Visibility Wind DirectionWind SpeedGust SpeedPrecipitationEvents Conditions
12:54 AM 42.8°F 39.2°F 87% 30.47 in 8.0 miles Calm Calm - N/A   Clear
1:54 AM 42.1°F 39.9°F 92% 30.48 in 6.0 miles Calm Calm - N/A   Clear
2:54 AM 41.0°F 39.0°F 93% 30.46 in 3.0 miles Calm Calm - N/A   Clear
2:57 AM 41.0°F 39.2°F 93% 30.46 in 0.8 miles Calm Calm - N/A   Clear
3:18 AM 42.8°F 41.0°F 93% 30.46 in 0.2 miles Calm Calm - N/A Fog Fog
3:50 AM 41.0°F 41.0°F 100% 30.46 in 0.5 miles Calm Calm - N/A Fog Fog
3:54 AM 39.9°F 39.9°F 100% 30.45 in 0.2 miles Calm Calm - N/A Fog Fog
4:25 AM 42.8°F 42.8°F 100% 30.45 in 0.2 miles Calm Calm - N/A Fog Fog
4:54 AM 39.0°F 37.9°F 96% 30.45 in 0.2 miles Calm Calm - N/A Fog Fog
5:54 AM 41.0°F 39.9°F 96% 30.46 in 0.2 miles Calm Calm - N/A Fog Fog
6:52 AM 41.0°F 39.2°F 93% 30.46 in 0.2 miles Calm Calm - N/A Fog Fog
6:54 AM 41.0°F 39.9°F 96% 30.46 in 0.1 miles Calm Calm - N/A Fog Fog
7:54 AM 44.1°F 43.0°F 96% 30.46 in 0.2 miles Calm Calm - N/A Fog Fog
8:02 AM 44.6°F 44.6°F 100% 30.46 in 0.2 miles Calm Calm - N/A Fog Fog
8:30 AM 48.2°F 48.2°F 100% 30.45 in 2.0 miles Calm Calm - N/A   Mostly Cloudy
8:38 AM 48.2°F 48.2°F 100% 30.46 in 2.5 miles Calm Calm - N/A   Scattered Clouds
8:49 AM 50.0°F 50.0°F 100% 30.45 in 3.0 miles Calm Calm - N/A   Clear
8:54 AM 50.0°F 50.0°F 100% 30.45 in 3.0 miles Calm Calm - N/A   Clear
9:54 AM 57.0°F 52.0°F 83% 30.44 in 7.0 miles SSW 5.8 mph - N/A   Clear
10:54 AM 64.0°F 54.0°F 70% 30.42 in 10.0 miles Calm Calm - N/A   Clear
11:54 AM 66.9°F 55.0°F 66% 30.38 in 10.0 miles SSW 6.9 mph - N/A   Clear
12:54 PM 69.1°F 52.0°F 54% 30.35 in 10.0 miles South 8.1 mph 18.4 mph N/A   Partly Cloudy
1:54 PM 69.1°F 52.0°F 54% 30.33 in 10.0 miles SSW 10.4 mph 16.1 mph N/A   Mostly Cloudy
2:54 PM 68.0°F 52.0°F 56% 30.31 in 10.0 miles South 10.4 mph 17.3 mph N/A   Clear
3:54 PM 68.0°F 53.1°F 59% 30.29 in 10.0 miles Variable 6.9 mph 16.1 mph N/A   Scattered Clouds
4:54 PM 66.0°F 54.0°F 65% 30.27 in 10.0 miles South 6.9 mph - N/A   Clear
5:54 PM 64.0°F 55.0°F 73% 30.27 in 10.0 miles SSE 6.9 mph - N/A   Clear
6:54 PM 62.1°F 54.0°F 75% 30.27 in 10.0 miles Calm Calm - N/A   Clear
7:54 PM 62.1°F 55.9°F 80% 30.26 in 10.0 miles Variable 3.5 mph - N/A   Partly Cloudy
8:54 PM 61.0°F 57.0°F 87% 30.24 in 10.0 miles South 4.6 mph - N/A   Partly Cloudy
9:54 PM 60.1°F 57.0°F 90% 30.23 in 10.0 miles SE 4.6 mph - N/A   Partly Cloudy
10:54 PM 61.0°F 57.0°F 87% 30.21 in 10.0 miles Variable 3.5 mph - N/A   Clear
11:54 PM 62.1°F 57.0°F 84% 30.19 in 10.0 miles SSW 4.6 mph - N/A   Scattered Clouds
Astronomy
Sunrise:06:42 AM (EST) Moon Rise:05:04 AM (EST)11/12
Sunset:04:45 PM (EST) Moon Set:03:49 PM (EST)11/12
Moon Phase
Nov. 12 Nov. 13 Nov. 20 Nov. 28 Dec. 06

Copyright © 2014 The Weather Underground, Inc.